Regional Weather Roundup
Issued by NWS

Home | Current Version | Previous Version | Graphics & Text | Print | Product List | Glossary Off
Versions: 1 2 3 4 5 6 7 8 9 10 11 12 13 14 15 16 17 18 19 20 21 22 23 24 25 26 27 28 29 30 31 32 33 34 35 36 37 38 39 40 41 42 43 44 45 46 47 48 49 50

589
ASUS44 KJAN 270510
RWRMS

MISSISSIPPI HOURLY WEATHER ROUNDUP
NATIONAL WEATHER SERVICE JACKSON MS
1100 PM CST WED NOV 26 2014

NOTE: "FAIR: INDICATES FEW OR NO CLOUDS BELOW 12,000 FEET WITH NO
SIGNIFICANT WEATHER AND/OR OBSTRUCTIONS TO VISIBILITY.

MSZ001>002-007>008-010>013-018>021-025>028-034>036-270600-
NORTHWEST MISSISSIPPI

CITY           SKY/WX    TMP DP  RH WIND       PRES   REMARKS
CLARKSDALE     FAIR      37  34  87 CALM      30.23R
CLEVELAND      FAIR      42  37  82 NW3       30.23R
GREENWOOD      CLEAR     38  34  85 S3        30.21S
GREENVILLE     CLEAR     44  32  62 W7        30.23R
GRENADA        FAIR      32  30  93 CALM      30.22R
OLIVE BRANCH   CLEAR     37  36  93 CALM      30.18S
OXFORD         FAIR      32  28  86 CALM      30.21R
TUNICA         CLEAR     34  32  93 W7        30.22R WCI  28
$$

MSZ003>006-009-014>017-022>024-029>033-037>039-270600-
NORTHEAST MISSISSIPPI

CITY           SKY/WX    TMP DP  RH WIND       PRES   REMARKS
COLUMBUS AFB   PTCLDY    39  31  72 NW1       30.19R
CORINTH          N/A     36  32  87 CALM      30.16S
GOLDN TRIANGLE CLEAR     43  30  61 NW3       30.18S
STARKVILLE       N/A     36  32  87 CALM      30.19S
TUPELO         PTCLDY    42  32  67 CALM      30.18R
$$

MSZ040-058-270600-
CENTRAL MISSISSIPPI

CITY           SKY/WX    TMP DP  RH WIND       PRES   REMARKS
JACKSON INTL   CLEAR     51  32  48 NW9       30.23R
JACKSON HAWKNS CLEAR     51  30  44 NW10      30.23R
MERIDIAN KEY   CLEAR     40  34  79 S5        30.22R
MERIDIAN NAS   CLEAR     46  33  60 NW3       30.21R
RAYMOND        FAIR      48  45  87 NW6       30.24S
VICKSBURG      CLEAR     49  35  58 NW5       30.25S
$$

MSZ059>079-270600-
SOUTH MISSISSIPPI

CITY           SKY/WX    TMP DP  RH WIND       PRES   REMARKS
BROOKHAVEN     FAIR      52  37  58 CALM      30.26R
HATTIESBURG    CLEAR     52  39  61 W3        30.24R
MCCOMB         CLEAR     53  41  63 NW10      30.25R
NATCHEZ        CLEAR     48  37  66 CALM      30.27S
PINE BELT      CLEAR     52  37  58 NW6       30.24R
$$

MSZ080>082-270600-
COASTAL MISSISSIPPI

CITY           SKY/WX    TMP DP  RH WIND       PRES   REMARKS
BILOXI         CLEAR     56  46  67 VRB6      30.23R
PASCAGOULA     CLEAR     54  47  77 W5        30.23R
GULFPORT       CLEAR     55  45  68 W7        30.23R
$$



USA.gov is the U.S. government's official web portal to all federal, state and local government web resources and services.